Location: Arboyeti
(42.1122°N, 44.6017°E)
Time: 05:21:22
(UTC+00:00)

ISS - Pass Details

Date: 04 October 2021
Orbit: 417 x 423 km, 51.6° (Epoch: 18 October)

Event Time Altitude Azimuth Distance (km) Brightness Sun altitude
Rises 16:01:07 0° 302° (WNW) 2,364 1.3 -16.2°
Reaches altitude 10° 16:03:13 10° 300° (WNW) 1,499 0.1 -16.6°
Maximum altitude 16:06:34 66° 217° (SW) 460 -3.5 -17.2°
Enters shadow 16:07:37 39° 150° (SSE) 644 -3.2 -17.4°
